Wind_Speed
18 20 22 23 25 28 31 33 36 38 39 40 41 40 39 43 47 48 55 59 51 48 49 50 51 51 51 50 51 52 55 50 45 40 39 45 48 41 37 39 38 41 40 39 34
19 20 21 22 24 26 29 31 34 35 38 40 41 42 43 42 43 45 56 62 65 60 54 53 54 53 58 54 55 55 59 52 43 41 44 49 46 36 38 35 33 37 41 43 40
21 23 24 25 27 28 29 31 32 33 36 39 40 41 42 44 47 50 50 57 60 66 63 59 59 63 60 56 57 59 61 51 47 46 45 45 51 40 46 45 30 34 42 41 40
22 22 23 25 27 28 30 31 32 33 35 38 40 42 43 44 45 51 53 55 58 59 65 70 67 64 64 63 57 59 60 58 51 50 52 51 51 50 50 48 40 38 44 45 44
23 24 26 26 27 28 29 30 32 33 36 38 40 42 44 44 46 52 52 54 58 60 61 69 74 73 67 65 68 69 66 65 63 58 58 57 57 53 50 48 46 41 45 42 39
23 24 23 24 26 27 29 32 34 36 38 39 40 42 44 46 54 53 56 55 55 58 63 64 70 76 78 73 67 64 64 65 67 65 64 63 59 58 57 49 51 45 45 45 41
18 21 23 26 29 31 34 37 39 41 42 44 45 46 45 50 54 57 59 58 60 59 59 62 66 67 80 81 76 69 71 71 70 66 68 63 63 59 50 51 47 46 45 44 39
22 24 27 30 33 35 37 40 42 44 46 47 50 52 54 56 56 59 59 61 62 62 62 63 64 67 66 78 80 77 77 74 68 71 70 68 63 53 53 53 46 42 38 40 42
26 29 31 33 36 38 40 43 46 48 50 52 54 53 58 64 64 66 63 65 65 65 64 66 67 64 65 67 72 80 76 72 69 67 74 72 53 54 47 49 49 45 45 44 47
27 29 32 35 38 42 44 46 48 52 55 57 60 64 69 72 75 73 72 72 69 72 71 70 67 67 66 66 70 69 66 69 70 63 62 69 58 52 47 45 48 49 46 45 45
30 32 35 39 41 42 43 46 48 52 59 63 68 74 78 79 82 80 80 76 77 78 75 74 73 67 59 61 61 62 64 65 62 60 57 59 58 53 51 47 45 44 45 44 40
32 35 37 39 40 41 44 47 51 55 61 68 72 66 58 55 54 58 68 75 76 79 80 79 73 65 64 67 65 64 63 60 58 55 53 51 53 54 51 46 43 41 42 41 39
31 32 35 36 39 41 45 48 53 57 62 63 53 43 35 34 35 27 41 51 58 68 74 79 72 69 69 69 66 66 64 60 58 55 52 54 56 52 47 44 41 41 39 37 33
29 31 34 37 39 42 45 48 52 58 59 50 37 32 28 26 21 24 29 36 35 47 55 68 69 73 73 70 68 66 63 60 60 55 55 51 55 48 39 40 43 40 38 33 31
30 33 35 37 39 42 44 47 51 53 50 39 36 28 25 23 23 16 17 31 36 42 43 54 64 69 68 65 69 62 62 62 61 58 55 52 52 30 36 35 32 30 30 27 29
35 34 37 37 38 41 44 46 49 49 37 35 34 24 15 18 21 25 19 20 21 25 42 49 45 53 60 59 64 63 64 58 60 60 62 49 50 22 30 29 28 30 31 29 25
33 35 37 36 38 40 43 44 44 39 32 35 28 21 26 15 16 23 19 10 19 18 18 37 40 45 49 54 56 62 64 62 60 62 52 49 50 25 15 28 28 30 28 20 19
34 36 36 35 37 38 40 42 42 36 28 29 23 20 20 22 15 19 10 21 11 14 13 16 27 34 44 52 50 58 60 62 64 58 48 50 47 34 14 24 25 23 18 19 21
36 37 36 34 35 37 39 43 43 34 26 26 23 20 17 17 12 12 8 13 16 13 8 8 13 25 33 43 50 52 56 52 53 55 52 51 44 40 24 24 21 18 18 18 15
35 37 36 35 34 36 37 40 39 33 24 25 27 23 17 15 11 10 7 11 15 13 16 16 14 18 27 37 46 50 51 51 54 55 55 51 47 38 34 18 20 17 17 14 17
36 39 36 33 31 33 36 36 36 32 26 23 25 26 22 14 12 8 9 13 12 13 14 20 22 23 23 30 36 43 50 54 52 54 55 52 50 40 32 28 28 20 20 17 18
39 40 39 35 31 31 35 38 37 30 25 24 22 22 20 17 12 10 10 10 13 16 12 12 13 19 23 31 33 38 48 54 57 56 55 54 51 46 33 33 26 22 17 19 14
36 41 42 39 35 29 29 33 36 34 24 23 22 21 19 17 11 9 7 11 10 14 17 19 21 16 19 29 39 41 48 55 58 61 60 58 53 28 37 35 31 23 23 18 9
37 39 42 40 36 34 31 31 31 31 26 22 21 19 17 18 17 9 14 15 17 19 16 15 21 17 17 23 35 45 48 55 61 60 57 56 52 37 40 36 33 28 24 14 7
39 37 42 41 34 33 32 33 34 35 26 21 16 16 12 14 17 18 23 22 21 23 22 17 16 17 14 20 27 38 50 56 63 60 56 54 43 47 39 39 36 35 28 16 7
39 35 39 41 35 31 31 32 32 34 31 19 15 14 12 17 27 20 24 24 27 24 21 25 17 17 13 15 24 32 47 55 62 63 59 55 47 51 45 42 38 33 28 19 14
37 36 37 38 34 30 29 31 33 34 30 18 14 10 17 25 29 16 12 12 13 21 15 17 18 19 16 18 19 26 38 51 60 63 60 55 53 50 48 44 34 31 31 21 15
Wind_Direction
269 269 271 273 271 268 266 262 258 255 255 253 255 255 253 251 248 242 240 240 239 237 238 241 233 235 233 231 234 237 239 237 238 229 225 231 234 240 251 258 262 264 266 258 258
277 275 272 270 268 265 265 267 267 265 262 260 256 251 250 250 251 250 243 241 242 240 235 237 237 233 234 233 235 237 242 241 244 242 243 247 247 250 241 259 258 262 263 261 262
282 279 278 276 274 271 269 267 266 265 265 267 265 263 260 251 246 244 245 243 244 242 243 238 237 242 235 228 234 236 242 245 243 243 244 249 251 247 240 256 274 267 261 266 266
286 285 283 281 280 281 280 278 275 271 267 264 263 264 264 264 260 251 246 243 244 242 241 241 238 240 244 242 237 240 243 246 244 247 250 252 256 264 258 264 268 272 254 253 264
284 283 283 284 283 282 281 278 275 273 271 269 269 266 262 261 258 259 253 247 246 246 244 239 239 238 242 243 245 249 249 251 251 252 254 254 253 253 256 274 271 268 261 254 257
286 288 290 290 289 287 284 283 280 279 276 272 268 266 264 262 259 256 256 252 248 246 245 244 241 242 239 242 242 244 248 250 254 256 255 255 258 261 259 267 269 268 265 258 257
292 293 294 293 290 289 291 289 287 286 284 282 278 272 267 260 259 259 255 254 251 247 245 244 245 246 243 237 239 241 245 251 250 254 256 252 257 257 266 269 266 265 266 263 268
304 303 302 301 299 297 296 294 291 289 287 283 280 277 275 269 265 259 256 255 252 249 245 243 242 244 247 244 244 244 246 250 253 255 256 253 261 261 267 266 261 256 253 254 258
307 306 305 304 301 298 296 293 291 288 287 281 277 270 266 263 264 262 257 253 251 250 247 244 242 241 242 243 244 245 247 249 251 252 252 255 255 261 264 260 258 256 255 255 257
307 306 304 303 303 301 300 298 298 296 293 290 285 282 277 274 270 267 256 253 251 247 245 243 242 241 240 241 246 250 253 253 251 252 251 254 258 263 259 253 250 250 251 255 260
305 303 302 303 303 302 301 300 299 298 298 296 293 287 282 276 269 264 257 251 246 245 243 242 241 242 244 245 243 244 246 248 248 251 250 254 254 255 258 253 250 251 251 255 259
307 306 308 309 306 304 303 302 301 304 307 307 309 305 300 293 282 265 252 246 239 240 239 238 240 239 237 237 238 240 243 245 248 249 252 250 249 247 249 253 257 255 254 255 257
314 314 313 313 311 309 309 311 314 317 318 318 311 299 296 299 306 295 257 238 235 235 235 233 235 234 235 234 234 236 238 241 244 246 250 251 247 247 247 252 255 257 256 251 249
317 318 319 319 317 316 317 321 323 325 323 318 313 294 289 297 309 302 275 236 234 231 231 230 229 230 231 233 233 232 235 236 240 241 246 253 250 246 248 251 253 255 255 248 245
324 325 323 323 322 322 325 329 329 329 321 320 317 309 296 309 305 300 279 244 243 236 221 221 224 224 227 230 233 233 233 233 236 239 242 244 254 238 236 241 246 257 248 241 240
328 330 328 326 326 325 330 333 333 328 318 318 315 305 310 289 291 287 293 252 252 258 239 217 221 223 222 223 225 227 230 231 234 235 236 238 249 235 233 237 240 237 240 240 239
330 334 329 327 327 327 333 334 333 332 326 327 319 303 299 309 255 281 304 285 237 231 240 230 224 221 220 222 221 223 226 227 229 233 232 233 240 241 229 226 225 229 233 235 237
333 335 332 327 327 328 334 331 338 336 328 336 326 323 315 315 278 266 283 260 232 205 215 222 212 224 216 218 218 221 224 225 229 231 229 232 232 232 208 204 220 223 221 227 232
333 335 334 329 326 329 332 331 341 340 331 332 331 316 313 310 322 253 267 274 271 237 238 221 185 208 209 217 214 213 220 221 226 227 224 226 226 225 206 221 236 225 216 222 239
339 338 337 333 329 329 331 338 342 340 334 333 332 329 323 302 307 289 276 265 266 271 260 267 239 227 217 213 215 214 215 216 218 219 221 221 223 217 212 225 214 202 199 203 221
344 342 342 335 330 331 333 341 345 340 333 327 326 325 329 311 293 274 265 253 262 280 250 259 254 238 231 224 218 216 212 216 216 216 220 220 219 218 207 216 231 227 206 227 231
343 342 345 341 335 335 337 341 347 343 325 327 323 316 321 314 284 288 267 254 261 256 260 261 269 251 238 229 218 220 211 213 212 213 215 218 214 217 218 215 195 191 213 230 222
343 344 346 345 337 339 337 341 345 345 321 326 318 313 316 321 301 278 290 288 269 254 261 268 258 259 233 222 219 220 214 213 210 210 210 215 212 203 203 191 196 193 196 206 211
344 345 345 349 339 337 342 342 344 343 322 325 325 321 311 313 314 279 259 264 272 261 268 261 255 259 227 217 224 222 215 211 212 208 209 211 214 190 193 191 200 193 184 187 203
344 346 345 351 340 335 340 341 344 348 335 325 335 332 320 300 300 299 285 270 263 258 258 258 262 247 234 224 232 222 220 211 207 204 206 207 201 189 189 191 192 186 183 174 189
342 344 345 350 343 337 338 339 343 349 346 337 355 335 328 333 326 307 295 272 261 258 237 246 252 234 248 259 238 233 220 211 206 202 201 203 183 176 180 184 190 189 184 174 171
343 343 344 348 345 337 338 340 341 352 350 339 343 334 336 332 338 346 305 290 262 233 225 229 239 238 250 242 231 232 225 213 205 203 198 200 172 176 177 187 186 194 183 169 169
Height
5780 5780 5779 5778 5778 5777 5777 5777 5777 5777 5777 5779 5780 5781 5782 5784 5788 5789 5794 5797 5796 5800 5804 5807 5810 5811 5812 5817 5819 5821 5822 5829 5837 5841 5840 5838 5839 5844 5846 5847 5849 5846 5845 5845 5843
5774 5774 5775 5775 5774 5774 5773 5773 5773 5771 5771 5771 5771 5772 5774 5775 5777 5779 5781 5782 5786 5788 5795 5798 5800 5799 5802 5807 5808 5810 5812 5823 5834 5833 5832 5832 5838 5841 5835 5838 5839 5842 5843 5841 5841
5770 5769 5768 5767 5767 5766 5766 5766 5766 5765 5764 5763 5763 5763 5763 5765 5768 5767 5768 5769 5772 5777 5784 5787 5789 5789 5793 5795 5798 5800 5803 5817 5822 5824 5822 5823 5825 5834 5830 5830 5838 5840 5839 5837 5834
5763 5762 5761 5760 5759 5758 5757 5757 5756 5756 5756 5755 5754 5754 5754 5756 5757 5753 5755 5757 5759 5765 5768 5773 5776 5779 5783 5787 5793 5791 5797 5804 5814 5813 5814 5817 5817 5815 5820 5828 5832 5833 5833 5832 5832
5758 5756 5755 5753 5751 5750 5748 5747 5745 5744 5743 5742 5742 5743 5745 5747 5745 5739 5744 5746 5748 5750 5753 5756 5758 5767 5771 5778 5779 5782 5791 5789 5796 5803 5804 5805 5807 5812 5813 5818 5823 5825 5825 5827 5826
5752 5750 5748 5746 5745 5743 5741 5739 5737 5735 5733 5732 5731 5731 5732 5735 5725 5729 5728 5732 5735 5739 5740 5742 5747 5752 5754 5761 5766 5775 5776 5778 5781 5788 5794 5793 5799 5801 5811 5817 5812 5816 5817 5818 5818
5748 5746 5744 5741 5739 5736 5733 5730 5727 5725 5723 5722 5721 5721 5723 5715 5716 5713 5713 5717 5719 5724 5727 5729 5731 5732 5740 5746 5752 5760 5759 5763 5771 5775 5777 5784 5785 5792 5803 5804 5806 5807 5805 5807 5810
5743 5740 5738 5735 5731 5728 5724 5720 5716 5713 5711 5708 5706 5705 5705 5700 5700 5699 5702 5702 5703 5707 5712 5713 5714 5718 5725 5731 5738 5745 5747 5751 5762 5765 5769 5771 5769 5789 5792 5791 5795 5796 5799 5800 5803
5736 5733 5730 5726 5722 5718 5714 5710 5705 5700 5698 5694 5691 5689 5684 5682 5682 5682 5685 5685 5687 5690 5694 5694 5700 5706 5711 5718 5722 5728 5737 5742 5751 5757 5756 5756 5758 5773 5781 5781 5783 5786 5786 5789 5791
5728 5725 5721 5717 5712 5706 5701 5696 5690 5683 5680 5674 5671 5672 5663 5660 5658 5661 5661 5665 5668 5670 5674 5677 5683 5690 5698 5703 5712 5722 5732 5732 5731 5740 5744 5746 5750 5762 5766 5767 5768 5771 5775 5778 5780
5723 5718 5714 5708 5703 5697 5692 5686 5682 5675 5664 5658 5650 5642 5635 5633 5629 5632 5630 5639 5644 5648 5654 5658 5662 5679 5696 5700 5702 5704 5707 5710 5719 5724 5731 5736 5741 5750 5750 5751 5757 5761 5764 5767 5772
5716 5710 5706 5701 5695 5688 5682 5674 5667 5660 5650 5638 5626 5616 5606 5600 5599 5599 5594 5611 5617 5625 5630 5637 5652 5671 5675 5674 5683 5690 5695 5703 5708 5714 5717 5723 5729 5732 5736 5743 5749 5753 5756 5759 5762
5709 5705 5699 5693 5686 5679 5671 5664 5655 5645 5636 5622 5614 5608 5603 5597 5591 5587 5577 5584 5593 5602 5610 5619 5641 5647 5651 5655 5667 5674 5682 5693 5698 5701 5709 5712 5714 5722 5731 5734 5740 5744 5747 5750 5752
5703 5698 5692 5685 5679 5670 5663 5654 5645 5633 5624 5616 5607 5598 5596 5591 5586 5578 5571 5573 5580 5587 5592 5604 5621 5628 5630 5644 5651 5660 5672 5683 5684 5692 5697 5703 5701 5712 5729 5730 5731 5736 5739 5742 5745
5697 5691 5684 5677 5671 5663 5656 5646 5636 5625 5615 5607 5600 5593 5588 5585 5582 5577 5572 5573 5577 5580 5577 5595 5605 5607 5617 5633 5637 5655 5661 5667 5673 5681 5689 5696 5696 5716 5719 5722 5728 5731 5732 5735 5738
5690 5686 5677 5670 5663 5655 5647 5638 5628 5620 5609 5601 5593 5587 5585 5580 5577 5574 5572 5570 5572 5573 5575 5583 5586 5591 5604 5611 5624 5640 5643 5656 5662 5670 5672 5694 5694 5703 5710 5719 5722 5723 5722 5725 5729
5685 5679 5671 5662 5655 5648 5639 5631 5624 5612 5602 5594 5586 5581 5578 5576 5573 5570 5569 5567 5568 5570 5570 5571 5578 5586 5594 5601 5614 5624 5631 5643 5649 5652 5676 5687 5687 5696 5706 5709 5712 5713 5716 5721 5724
5681 5674 5665 5657 5648 5641 5634 5627 5618 5606 5597 5591 5583 5578 5574 5570 5567 5566 5566 5566 5567 5568 5568 5572 5576 5581 5584 5593 5605 5614 5623 5632 5639 5653 5671 5677 5682 5689 5702 5704 5705 5709 5714 5717 5719
5676 5669 5660 5652 5643 5636 5630 5621 5609 5601 5592 5586 5582 5577 5572 5568 5564 5564 5563 5564 5564 5565 5568 5570 5574 5577 5580 5585 5595 5603 5610 5626 5632 5646 5659 5665 5677 5686 5696 5700 5704 5707 5710 5713 5715
5671 5663 5655 5646 5639 5631 5625 5615 5604 5595 5588 5582 5576 5573 5569 5565 5563 5562 5561 5561 5562 5563 5564 5568 5573 5572 5575 5580 5587 5596 5605 5612 5621 5634 5647 5660 5668 5676 5690 5696 5699 5703 5707 5709 5709
5667 5658 5651 5643 5635 5627 5619 5611 5601 5591 5584 5580 5574 5568 5565 5562 5560 5560 5560 5560 5560 5560 5561 5564 5567 5571 5573 5577 5582 5587 5594 5601 5615 5628 5639 5653 5661 5674 5686 5688 5691 5699 5703 5705 5706
5662 5655 5646 5638 5631 5623 5614 5605 5598 5589 5582 5576 5572 5567 5563 5560 5559 5557 5558 5558 5559 5559 5558 5559 5562 5565 5569 5572 5574 5576 5586 5592 5605 5623 5634 5644 5655 5667 5679 5681 5687 5695 5700 5701 5702
5660 5650 5641 5633 5626 5620 5612 5603 5593 5586 5579 5575 5569 5564 5561 5558 5556 5555 5555 5556 5557 5556 5557 5558 5560 5561 5562 5564 5565 5568 5577 5587 5599 5609 5622 5634 5644 5661 5667 5673 5682 5689 5693 5698 5699
5657 5648 5638 5630 5621 5613 5608 5601 5593 5584 5576 5571 5566 5562 5558 5556 5553 5554 5553 5553 5553 5552 5553 5554 5554 5556 5557 5557 5558 5563 5568 5579 5588 5603 5617 5629 5638 5658 5661 5669 5676 5683 5686 5691 5696
5653 5645 5634 5627 5618 5609 5603 5596 5590 5583 5576 5569 5564 5559 5558 5556 5553 5550 5548 5545 5546 5546 5548 5549 5550 5550 5551 5552 5551 5555 5561 5569 5579 5596 5607 5622 5636 5648 5657 5665 5670 5677 5682 5685 5692
5649 5642 5633 5624 5615 5608 5601 5594 5587 5581 5572 5567 5563 5559 5556 5553 5549 5545 5540 5537 5538 5539 5543 5545 5546 5546 5547 5546 5545 5547 5553 5561 5574 5586 5599 5612 5632 5642 5651 5659 5666 5673 5679 5682 5687
5647 5639 5631 5623 5614 5606 5600 5592 5584 5579 5571 5564 5562 5559 5557 5552 5543 5537 5533 5530 5530 5531 5536 5540 5542 5542 5543 5541 5539 5541 5548 5558 5569 5580 5593 5606 5628 5634 5645 5655 5664 5671 5677 5680 5684